Tracking 30744 objects as of 24-Jun-2025
HD Live streaming from Space Station
objects crossing your sky now

STARLINK-34264

Track STARLINK-34264 now!
10-day predictions
STARLINK-34264 is classified as:


NORAD ID: 64277
Int'l Code: 2025-120X
Perigee: 424.9 km
Apogee: 427.0 km
Inclination: 53.2 °
Period: 92.9 minutes
Semi major axis: 6796 km
RCS: Unknown
Launch date: June 4, 2025
Source: United States (US)
Launch site: AIR FORCE WESTERN TEST RANGE (AFWTR)
Your satellite tracking list
Your tracking list is empty




NASA's NSSDC Master Catalog

Two Line Element Set (TLE):
1 64277U 25120X   25174.91668981  .00008762  00000-0  16548-3 0  9993
2 64277  53.1599 244.0000 0001536  88.3526 201.5273 15.49300255  4207
Source of the keplerian elements: AFSPC